www.pogodaiklimat.ru

Погода и климат >> Архив погоды >> Латвия >> Приекули


ПОГОДА в Приекули

  • Прогноз погоды в Приекули
  • Монитор погоды в Приекули

АРХИВ ПОГОДЫ в Приекули

Время (UTC), дата Ветер
(напр.,м/с)
 
Видим.   Явления Облачность Т
(С)
Тd
(С)
f
(%)
Тe
(С)
Тes
(С)
Комфортность P
(гПа)
Po
(гПа)
Тmin
(С)
Tmax
(С)
R
(мм)
R24
(мм)
S
(см)
09 15.08 З 6-8
{9}
20 км н/о +17.3 +11.0 66 +16 +16 1012.6 998.3
12 15.08 З 6-9
{10}
20 км н/о +19.4 +8.0 48 +20 +20 1012.9 998.5
15 15.08 З 4-5
{9}
20 км н/о +19.0 +9.1 53 +20 +20 1013.7 999.3
18 15.08 штиль 0-1
{3}
20 км н/о +14.8 +10.5 75 +15 +15 1029.4 1000.3
00 16.08 ЮВ 2-3
{3}
20 км н/о +10.2 +9.4 95 +9 +9 1031.0 1001.5
03 16.08 ЮВ 3-3
{3}
20 км н/о +10.1 +8.8 92 +8 +8 1016.3 1001.4
06 16.08 Ю 3-5
{5}
20 км н/о +16.1 +11.6 75 +16 +16 1016.7 1002.1
09 16.08 ЮЗ 3-5
{5}
20 км н/о +19.3 +9.9 54 +20 +20 1030.7 1002.0
12 16.08 20 км н/о
15 16.08 ЮВ 2-3
{4}
20 км н/о +21.3 +8.8 45 +23 +23 комфорт 1015.8 1001.5
18 16.08 ЮВ 1-2
{2}
15 км н/о +17.7 +11.9 69 +19 +19 1016.2 1001.7
21 16.08 ЮВ 2-3
{3}
20 км н/о +14.9 +10.6 75 +15 +15 1016.4 1001.7
00 17.08 ЮВ 3-3
{4}
20 км н/о +13.5 +9.9 79 +12 +12 1016.9 1002.2
03 17.08 ЮВ 3-4
{4}
20 км н/о +12.5 +9.3 81 +11 +11 1016.5 1001.7
06 17.08 ЮВ 3-3
{4}
20 км н/о +16.7 +11.2 70 +16 +16 1031.3 1002.3
09 17.08 Ю 4-5
{6}
20 км н/о +22.5 +10.9 48 +25 +25 комфорт 1016.4 1002.1
12 17.08 Ю 3-4
{7}
20 км н/о +23.3 +9.2 41 +25 +25 комфорт 1015.6 1001.4
15 17.08 ЮВ 3-4
{5}
20 км н/о +23.3 +9.9 43 +25 +25 комфорт 1014.5 1000.3
18 17.08
{3}
20 км н/о +18.7 +12.1 65 1014.7 1000.3
21 17.08 ЮВ 3-4
{6}
20 км н/о +16.4 +10.6 69 +16 +16 1014.5 999.9
00 18.08 Ю 3-4
{5}
20 км н/о +14.4 +9.5 72 +14 +14 1014.5 999.8
03 18.08 ЮВ 3-4
{5}
20 км н/о +13.5 +8.9 74 +12 +12 1013.6 998.9
06 18.08 ЮВ 3-5
{5}
20 км н/о +18.3 +10.3 60 +19 +19 1012.8 998.4
09 18.08 ЮВ 4-6
{7}
20 км н/о +22.4 +11.7 51 +25 +25 комфорт 1012.3 998.1
12 18.08 Ю 3-5
{7}
20 км н/о +24.6 +10.8 42 +26 +26 жарко 1011.5 997.4
15 18.08 ЮВ 3-4
{5}
20 км н/о +24.3 +11.5 45 +26 +26 жарко 1011.0 996.9
18 18.08 ЮВ 2-3
{3}
20 км н/о +20.0 +13.0 64 +22 +22 комфорт 1025.1 996.7
21 18.08 ЮВ 3-5
{6}
20 км н/о +18.7 +11.9 65 +20 +20 1010.5 996.1
00 19.08 ЮВ 4-6
{8}
20 км н/о +18.4 +11.6 65 +19 +19 1009.6 995.2
03 19.08 ЮВ 4-7
{7}
20 км н/о +18.4 +12.5 68 +19 +19 1008.3 993.9
06 19.08 Ю 5-8
{8}
20 км н/о +21.1 +14.0 64 +24 +24 комфорт 1008.6 994.4
09 19.08 ЮЗ 6-8
{10}
20 км н/о +23.0 +15.9 64 +27 +27 душно 1023.7 995.6
12 19.08 З 6-8
{9}
20 км н/о +23.0 +16.9 69 +28 +28 душно 1011.7 997.5
15 19.08 З 4-6
{7}
20 км н/о +21.1 +16.1 73 +24 +24 комфорт 1028.0 999.6
18 19.08 З 1-1
{3}
20 км н/о +18.2 +14.2 77 +20 +20 1015.7 1001.2
21 19.08 штиль 0-1
{2}
20 км н/о +15.3 +14.4 94 +15 +15 1017.5 1002.9
00 20.08 ЮВ 2-2
{2}
19 км н/о +13.4 +13.3 99 +13 +13 1033.0 1003.7
03 20.08 Ю 2-3
{3}
17 км н/о +11.8 +11.6 99 +11 +11 1019.8 1004.9
06 20.08 Ю 3-4
{5}
20 км н/о +16.8 +14.0 84 +17 +17 1020.7 1006.1
09 20.08 20 км н/о
12 20.08 ЮЗ 3-7
{7}
20 км н/о +22.6 +10.6 47 +25 +25 комфорт 1021.8 1007.4
15 20.08 штиль 0-1
{4}
20 км н/о +22.3 +11.8 51 +25 +25 комфорт 1036.3 1007.8
18 20.08 ЮЗ 3-4
{5}
20 км н/о +18.1 +14.5 79 +18 +18 1023.2 1008.6
21 20.08 штиль 0-1
{2}
20 км н/о +14.1 +13.2 94 +14 +14 1038.6 1009.2
00 21.08 ЮВ 1-2
{2}
20 км н/о +13.6 +12.7 94 +14 +14 1024.1 1009.3
03 21.08 СЗ 1-2
{2}
14 км н/о +13.4 +12.5 94 +13 +13 1023.9 1009.1
06 21.08 ЮВ 1-1
{3}
20 км н/о +14.9 +13.0 88 +15 +15 1024.0 1009.2
09 21.08 ЮВ 2-4
{5}
11 км н/о +14.7 +14.3 97 +14 +14 1024.2 1009.4 2
12 21.08 -2
{4}
14 км н/о +14.7 +13.8 94 1022.7 1008.0 0.3
15 21.08 СВ 1-2
{2}
9000 м н/о +14.1 +13.2 94 +14 +14 1022.2 1007.4 1
18 21.08 З 3-3
{4}
14 км н/о +13.6 +13.1 97 +12 +12 1023.0 1008.2
21 21.08 ЮЗ 2-3
{4}
20 км н/о +12.4 +11.9 97 +11 +11 1023.8 1008.9
00 22.08 ЮЗ 3-4
{4}
800 м н/о +12.0 +11.9 99 +10 +10 1024.8 1009.9
03 22.08 ЮЗ 2-4
{5}
2500 м н/о +12.1 +12.1 100 +11 +11 1040.4 1010.7
06 22.08 ЮЗ 4-6
{6}
500 м н/о +13.1 +13.0 99 +11 +11 1026.7 1011.8 0.1

 

Местоположение метеостанции Приекули (Латвия): широта 57.32 долгота 25.33 высота над уровнем моря 122 м.

В архиве по умолчанию представлена погода в Приекули за последнюю неделю. Архивные данные за месяц целиком и за предыдущие месяцы, начиная с января 2011 года, Вы можете получить, выбрав интересующий диапазон дат из раскрывающегося списка и нажав кнопку "Ввод!".


*Определитесь, кто Вы:
робот инопланетянин человек

Внимание! Время в таблицах - всемирное. Для получения местного времени необходимо прибавить поправку, которая равна 2 ч.

Смотрите также архив погоды в соседних городах и на ближайших метеорологических станциях:

Погода в Зозени (Латвия) (41 км)
Погода в Скульте (Латвия) (55 км)
Погода в Руйиене (Латвия) (65 км)
Погода в Валге (Эстония) (66 км)
Погода в Скриверу (Латвия) (76 км)
Погода в Мадоне (Латвия) (76 км)
Погода в Айнажи (Латвия) (84 км)
Погода в Гулбене (Латвия) (86 км)
Погода в Риге (Латвия) (86 км)
Погода в Зилани (Латвия) (96 км)

Пояснения к столбцам:

Ветер - указаны скорость ветра в м/с - средняя за 10 мин, порывы в срок и между сроками (в фигурных скобках) и направление, откуда дует ветер: С - северный, СВ - северо-восточный, В - восточный, ЮВ - юго-восточный, Ю - южный, ЮЗ - юго-западный, З - западный, СЗ - северо-западный.
Видимость - горизонтальная дальность видимости в метрах или километрах. При видимости от 1 до 10 км при отсутствии осадков обычно наблюдается дымка, при ухудшении видимости до 1 км и менее - туман. В сухую погоду видимость может ухудшаться дымом, пылью или мглою.
Явления - указаны атмосферные явления, наблюдавшиеся в срок или в последний час перед сроком; фигурными скобками обозначены явления, наблюдавшиеся между сроками (за 1-3 часа до срока); квадратными скобками обозначены град или гололедные отложения с указанием их диаметра в мм.
Облачность - указаны через наклонную черту общая и нижняя облачность в баллах и высота нижней границы облаков в метрах; квадратными скобками обозначены формы облаков: Ci - перистые, Cs - перисто-слоистые, Cc - перисто-кучевые, Ac - высококучевые, As - высокослоистые, Sc - слоисто-кучевые, Ns - слоисто-дождевые, Cu - кучевые, Cb - кучево-дождевые. Подробнее классификацию облаков см. в Атласе облаков (PDF).
T - Температура воздуха - температура, измеренная на высоте 2 м над землей.
Td - Температура точки росы - температура, при понижении до которой содержащийся в воздухе водяной пар достигнет насыщения.
f - Относительная влажность воздуха - влажноcть воздуха, измеренная на высоте 2 м над землей.
Te - Эффективная температура - температура, которую ощущает одетый по сезону человек в тени. Характеристика душности погоды. При расчете учитывается влияние влажности воздуха и скорости ветра на теплоощущения человека.
Tes - Эффективная температура на солнце - температура, которую ощущает человек, с поправкой на солнечный нагрев. Характеристика знойности погоды. Зависит от высоты солнца над горизонтом, облачности и скорости ветра. Ночью, в пасмурную погоду, а также при ветре 12 м/с и более поправка равна нулю.
P - Атмосферное давление - приведенное к уровню моря атмосферное давление.
Po - Атмосферное давление - измеренное на уровне метеостанции атмосферное давление.
Tmin - Минимальная температура - минимум температуры воздуха на высоте 2 м над землей.
Tmax - Максимальная температура - максимум температуры воздуха на высоте 2 м над землей.
R - Количество осадков - Количество выпавших осадков за период времени, мм. При наведении курсора мыши на число - период времени, за который выпало указанное количество осадков.
R24 - Количество осадков - Количество выпавших осадков за 24 часа, мм.
S - Снежный покров - Высота снежного покрова, см. При наведении курсора мыши на число - состояние снежного покрова и степень покрытия местности в баллах.